When you browse on this site, cookies collect data to enhance your experience and personalize the content and advertising you see.
Visit our Privacy Policy to learn more. By continuing to use the site, you agree to this use of cookies and data.
  • In Spain
  • List of Countries
  • For 7 days
  • Water Temperature
  • Satellite Maps
  • Weather Map
  • Weather Widgets
  • user-avatar
    Login

    Hourly Weather Trydent i Bolzano

    Today, 17 June, Monday

    Time Temperature Precipitation Wind Pressure Humidity
    00:00 +18°C° 0 mm 2 mps 738 mmHg 87%
    01:00 +17°C° 0 mm 2 mps 738 mmHg 88%
    02:00 +17°C° 0 mm 2 mps 738 mmHg 88%
    03:00 +18°C° 0 mm 1 mps 737 mmHg 88%
    04:00 +16°C° 0 mm 1 mps 737 mmHg 88%
    05:00 +19°C° 0 mm 1 mps 737 mmHg 83%
    06:00 +21°C° 0 mm 1 mps 738 mmHg 77%
    07:00 +23°C° 0 mm 1 mps 738 mmHg 71%
    08:00 +25°C° 0 mm 1 mps 738 mmHg 63%
    09:00 +27°C° 0 mm 1 mps 737 mmHg 56%
    10:00 +29°C° 0 mm 1 mps 737 mmHg 48%
    11:00 +30°C° 0.1 mm 1 mps 737 mmHg 46%
    12:00 +30°C° 0.1 mm 1 mps 737 mmHg 44%
    13:00 +31°C° 0.1 mm 2 mps 736 mmHg 42%
    14:00 +30°C° 0.2 mm 1 mps 736 mmHg 43%
    15:00 +30°C° 0.2 mm 1 mps 736 mmHg 44%
    16:00 +30°C° 0.2 mm 1 mps 735 mmHg 45%
    17:00 +29°C° 0.2 mm 1 mps 735 mmHg 54%
    18:00 +27°C° 0.2 mm 1 mps 735 mmHg 64%
    19:00 +26°C° 0.2 mm 1 mps 735 mmHg 74%
    20:00 +24°C° 0.4 mm 1 mps 736 mmHg 79%
    21:00 +22°C° 0.4 mm 1 mps 736 mmHg 84%
    22:00 +20°C° 0.4 mm 1 mps 736 mmHg 89%
    23:00 +20°C° 0.3 mm 1 mps 736 mmHg 89%

    Tomorrow, 18 June, Tuesday

    Time Temperature Precipitation Wind Pressure Humidity
    00:00 +19°C° 0.3 mm 1 mps 736 mmHg 90%
    01:00 +19°C° 0.3 mm 1 mps 736 mmHg 90%
    02:00 +19°C° 0 mm 1 mps 736 mmHg 91%
    03:00 +18°C° 0 mm 1 mps 736 mmHg 91%
    04:00 +18°C° 0 mm 1 mps 736 mmHg 91%
    05:00 +18°C° 0 mm 0 mps 736 mmHg 88%
    06:00 +19°C° 0 mm 0 mps 736 mmHg 85%
    07:00 +21°C° 0 mm 0 mps 736 mmHg 81%
    08:00 +23°C° 0.2 mm 0 mps 736 mmHg 74%
    09:00 +27°C° 0.2 mm 1 mps 736 mmHg 66%
    10:00 +29°C° 0.2 mm 1 mps 735 mmHg 58%
    11:00 +30°C° 0.4 mm 1 mps 735 mmHg 55%
    12:00 +30°C° 0.4 mm 2 mps 735 mmHg 52%
    13:00 +31°C° 0.4 mm 2 mps 735 mmHg 48%
    14:00 +31°C° 0.6 mm 2 mps 735 mmHg 52%
    15:00 +30°C° 0.6 mm 2 mps 734 mmHg 55%
    16:00 +30°C° 0.6 mm 2 mps 734 mmHg 59%
    17:00 +28°C° 1.1 mm 2 mps 734 mmHg 68%
    18:00 +27°C° 1.1 mm 1 mps 734 mmHg 78%
    19:00 +23°C° 1.1 mm 0 mps 734 mmHg 87%
    20:00 +24°C° 0.8 mm 1 mps 734 mmHg 89%
    21:00 +22°C° 0.8 mm 1 mps 735 mmHg 90%
    22:00 +21°C° 0.8 mm 1 mps 735 mmHg 92%
    23:00 +21°C° 0.3 mm 1 mps 735 mmHg 92%

    Day after tomorrow, 19 June, Wednesday

    Time Temperature Precipitation Wind Pressure Humidity
    00:00 +20°C° 0.3 mm 1 mps 735 mmHg 92%
    01:00 +20°C° 0.3 mm 1 mps 734 mmHg 92%
    02:00 +19°C° 0 mm 1 mps 734 mmHg 92%
    03:00 +19°C° 0 mm 1 mps 734 mmHg 92%
    04:00 +19°C° 0 mm 1 mps 734 mmHg 92%
    05:00 +18°C° 0 mm 0 mps 734 mmHg 90%
    06:00 +20°C° 0 mm 0 mps 734 mmHg 87%
    07:00 +21°C° 0 mm 0 mps 734 mmHg 85%
    08:00 +23°C° 0.5 mm 0 mps 734 mmHg 80%
    09:00 +26°C° 0.5 mm 1 mps 734 mmHg 75%
    10:00 +28°C° 0.5 mm 1 mps 734 mmHg 70%
    11:00 +28°C° 1 mm 1 mps 734 mmHg 67%
    12:00 +29°C° 1 mm 1 mps 734 mmHg 64%
    13:00 +30°C° 1 mm 2 mps 733 mmHg 60%
    14:00 +29°C° 0.8 mm 1 mps 733 mmHg 63%
    15:00 +28°C° 0.8 mm 1 mps 733 mmHg 65%
    16:00 +28°C° 0.8 mm 1 mps 733 mmHg 68%
    17:00 +27°C° 0.6 mm 1 mps 733 mmHg 74%
    18:00 +26°C° 0.6 mm 1 mps 733 mmHg 80%
    19:00 +22°C° 0.6 mm 0 mps 733 mmHg 85%
    20:00 +23°C° 0 mm 1 mps 733 mmHg 86%
    21:00 +22°C° 0 mm 1 mps 734 mmHg 86%
    22:00 +20°C° 0 mm 1 mps 734 mmHg 87%
    23:00 +20°C° 0 mm 1 mps 734 mmHg 87%

    20 June, Thursday

    Time Temperature Precipitation Wind Pressure Humidity
    00:00 +19°C° 0 mm 1 mps 734 mmHg 87%
    01:00 +19°C° 0 mm 1 mps 734 mmHg 86%
    02:00 +19°C° 0 mm 1 mps 734 mmHg 86%
    03:00 +19°C° 0 mm 1 mps 734 mmHg 85%
    04:00 +18°C° 0 mm 1 mps 734 mmHg 85%
    05:00 +20°C° 0 mm 1 mps 734 mmHg 81%
    06:00 +20°C° 0 mm 0 mps 734 mmHg 78%
    07:00 +22°C° 0 mm 0 mps 734 mmHg 74%
    08:00 +24°C° 0.1 mm 0 mps 734 mmHg 67%
    09:00 +28°C° 0.1 mm 1 mps 734 mmHg 59%
    10:00 +30°C° 0.1 mm 1 mps 735 mmHg 52%
    11:00 +30°C° 0.3 mm 1 mps 734 mmHg 50%
    12:00 +31°C° 0.3 mm 2 mps 734 mmHg 48%
    13:00 +31°C° 0.3 mm 2 mps 734 mmHg 46%
    14:00 +31°C° 0.4 mm 2 mps 734 mmHg 50%
    15:00 +30°C° 0.4 mm 2 mps 734 mmHg 54%
    16:00 +30°C° 0.4 mm 2 mps 734 mmHg 59%
    17:00 +28°C° 0.6 mm 2 mps 734 mmHg 68%
    18:00 +27°C° 0.6 mm 1 mps 734 mmHg 78%
    19:00 +25°C° 0.6 mm 1 mps 734 mmHg 87%
    20:00 +24°C° 0.3 mm 1 mps 734 mmHg 89%
    21:00 +22°C° 0.3 mm 1 mps 734 mmHg 90%
    22:00 +21°C° 0.3 mm 1 mps 735 mmHg 92%
    23:00 +21°C° 0 mm 1 mps 735 mmHg 92%

    21 June, Friday

    Time Temperature Precipitation Wind Pressure Humidity
    00:00 +20°C° 0 mm 1 mps 735 mmHg 91%
    01:00 +20°C° 0 mm 1 mps 735 mmHg 91%
    02:00 +19°C° 0 mm 1 mps 735 mmHg 91%
    03:00 +19°C° 0 mm 1 mps 735 mmHg 91%
    04:00 +19°C° 0 mm 1 mps 734 mmHg 91%
    05:00 +20°C° 0 mm 1 mps 734 mmHg 87%
    06:00 +20°C° 0 mm 0 mps 735 mmHg 84%
    07:00 +22°C° 0 mm 0 mps 735 mmHg 81%
    08:00 +23°C° 0.1 mm 0 mps 735 mmHg 73%
    09:00 +27°C° 0.1 mm 1 mps 735 mmHg 65%
    10:00 +29°C° 0.1 mm 2 mps 735 mmHg 58%
    11:00 +29°C° 0.5 mm 2 mps 734 mmHg 58%
    12:00 +29°C° 0.5 mm 2 mps 734 mmHg 59%
    13:00 +30°C° 0.5 mm 2 mps 734 mmHg 60%
    14:00 +29°C° 1.3 mm 2 mps 734 mmHg 65%
    15:00 +28°C° 1.3 mm 2 mps 734 mmHg 70%
    16:00 +28°C° 1.3 mm 2 mps 733 mmHg 76%
    17:00 +27°C° 0.9 mm 1 mps 734 mmHg 80%
    18:00 +26°C° 0.9 mm 1 mps 734 mmHg 84%
    19:00 +25°C° 0.9 mm 1 mps 734 mmHg 88%
    20:00 +23°C° 0.3 mm 1 mps 734 mmHg 90%
    21:00 +22°C° 0.3 mm 1 mps 734 mmHg 91%
    22:00 +21°C° 0.3 mm 1 mps 735 mmHg 92%
    23:00 +20°C° 0.3 mm 1 mps 735 mmHg 93%

    22 June, Saturday

    Time Temperature Precipitation Wind Pressure Humidity
    00:00 +20°C° 0.3 mm 1 mps 735 mmHg 93%
    01:00 +20°C° 0.3 mm 1 mps 735 mmHg 93%
    02:00 +19°C° 0.1 mm 1 mps 734 mmHg 93%
    03:00 +19°C° 0.1 mm 1 mps 734 mmHg 93%
    04:00 +19°C° 0.1 mm 1 mps 734 mmHg 94%
    05:00 +20°C° 0.1 mm 1 mps 734 mmHg 91%
    06:00 +21°C° 0.1 mm 1 mps 735 mmHg 89%
    07:00 +20°C° 0.1 mm 0 mps 735 mmHg 87%
    08:00 +22°C° 0.2 mm 0 mps 735 mmHg 78%
    09:00 +24°C° 0.2 mm 0 mps 735 mmHg 69%
    10:00 +26°C° 0.2 mm 0 mps 735 mmHg 60%
    11:00 +29°C° 0.6 mm 1 mps 735 mmHg 59%
    12:00 +29°C° 0.6 mm 1 mps 735 mmHg 58%
    13:00 +30°C° 0.6 mm 1 mps 734 mmHg 57%
    14:00 +29°C° 1.1 mm 1 mps 734 mmHg 61%
    15:00 +29°C° 1.1 mm 1 mps 734 mmHg 66%
    16:00 +28°C° 1.1 mm 1 mps 734 mmHg 70%
    17:00 +27°C° 1.3 mm 1 mps 734 mmHg 77%
    18:00 +26°C° 1.3 mm 1 mps 735 mmHg 83%
    19:00 +23°C° 1.3 mm 0 mps 735 mmHg 89%
    20:00 +21°C° 0.7 mm 0 mps 735 mmHg 90%
    21:00 +22°C° 0.7 mm 1 mps 736 mmHg 91%
    22:00 +20°C° 0.7 mm 1 mps 736 mmHg 92%
    23:00 +20°C° 0.1 mm 1 mps 736 mmHg 91%
    Show more